Prague, Czech Republic

7:31 PM CET on March 25, 2017 (GMT +0100)
Prague-Ruzyne Airport

Weather History for LKPR - March, 2011

Change the Weather History Date:

Tuesday, March 1, 2011

  Actual Average Record
Temperature  
Mean Temperature 32 °F -  
Max Temperature 41 °F 46 °F 55 °F (1997)
Min Temperature 22 °F 30 °F 10 °F (2005)
Degree Days  
Heating Degree Days 34    
Moisture  
Dew Point 22 °F    
Average Humidity 69    
Maximum Humidity 93    
Minimum Humidity 44    
Precipitation  
Precipitation 0.00 in 0.04 in - ()
Sea Level Pressure  
Sea Level Pressure 30.43 in    
Wind  
Wind Speed 7 mph ()    
Max Wind Speed 15 mph    
Max Gust Speed -    
Visibility 4.4 miles    
Events      
Averages and records for this station are not official NWS values.
T = Trace of Precipitation, MM = Missing Value Source: Averaged Metar Reports

Daily Weather History Graph

Daily Weather History Graph

Search for Another Location

Airport or City:

Trip Planner

Search our weather history database for the weather conditions in past years. The results will help you decide how hot, cold, wet, or windy it might be!

Date:

Astronomy

Mar. 01, 2011 Rise Set
Actual Time 6:47 AM CET 5:44 PM CET
Civil Twilight 6:14 AM CET 6:16 PM CET
Nautical Twilight 5:37 AM CET 6:54 PM CET
Astronomical Twilight 4:59 AM CET 7:31 PM CET
Moon 5:03 AM CET (3/1) 2:26 PM CET (3/1)
Length of Visible Light 12h 01m
Length of Day
10h 56m
Waning Crescent, 10% of the Moon is Illuminated
Mar 1
Waning Crescent
Mar 4
New
Mar 13
First Quarter
Mar 19
Full
Mar 26
Last Quarter

Hourly Weather History & Observations

Time (CET) Temp. Windchill Dew Point Humidity Pressure Visibility Wind Dir Wind Speed Gust Speed Precip Events Conditions
12:00 AM 30.2 °F 26.7 °F 26.6 °F 86% 30.33 in 3.7 mi NE 3.5 mph - N/A   Unknown
12:30 AM 28.4 °F 24.6 °F 24.8 °F 86% 30.33 in 3.7 mi ENE 3.5 mph - N/A   Unknown
1:00 AM 31 °F - 25 °F 72% 30.41 in 4 mi East 8.9 mph - -   Mist
1:00 AM 30.2 °F 25.4 °F 24.8 °F 80% 30.33 in 3.7 mi ENE 4.6 mph - N/A   Unknown
1:30 AM 28.4 °F 21.2 °F 24.8 °F 86% 30.33 in 4.3 mi East 6.9 mph - N/A   Unknown
2:00 AM 30.2 °F 21.9 °F 24.8 °F 80% 30.33 in 4.3 mi East 9.2 mph - N/A   Unknown
2:30 AM 28.4 °F 19.1 °F 23.0 °F 80% 30.33 in 4.3 mi East 10.4 mph - N/A   Unknown
3:00 AM 28.4 °F 18.5 °F 23.0 °F 80% 30.36 in 5.0 mi East 11.5 mph - N/A   Unknown
3:30 AM 26.6 °F 15.7 °F 21.2 °F 80% 30.36 in 5.6 mi East 12.7 mph - N/A   Unknown
4:00 AM 24.8 °F 17.9 °F 21.2 °F 86% 30.36 in 5.6 mi ENE 5.8 mph - N/A   Unknown
4:30 AM 26.6 °F 19.1 °F 21.2 °F 80% 30.36 in 5.6 mi ENE 6.9 mph - N/A   Unknown
5:00 AM 23.0 °F 14.7 °F 19.4 °F 86% 30.36 in 5.6 mi NE 6.9 mph - N/A   Unknown
5:30 AM 26.6 °F 17.5 °F 21.2 °F 80% 30.36 in 5.6 mi NE 9.2 mph - N/A   Unknown
6:00 AM 24.8 °F 16.1 °F 21.2 °F 86% 30.39 in 5.0 mi NE 8.1 mph - N/A   Unknown
6:02 AM 24.8 °F 16.1 °F 21.2 °F 86% 30.39 in 5.0 mi NE 8.1 mph - N/A   Unknown
6:30 AM 24.8 °F 16.9 °F 21.2 °F 86% 30.39 in 4.3 mi NE 6.9 mph - N/A   Unknown
7:00 AM 24 °F - 20 °F 79% 30.50 in 3 mi ENE 11.2 mph - -   Mist
7:00 AM 24.8 °F 14.6 °F 21.2 °F 86% 30.39 in 3.1 mi ENE 10.4 mph - N/A   Mist
7:30 AM 24.8 °F 14.6 °F 21.2 °F 86% 30.42 in 3.1 mi NE 10.4 mph - N/A   Mist
8:00 AM 24.8 °F 14.6 °F 21.2 °F 86% 30.42 in 3.1 mi NE 10.4 mph - N/A   Mist
8:30 AM 24.8 °F 14.6 °F 23.0 °F 93% 30.42 in 3.1 mi ENE 10.4 mph - N/A   Mist
9:00 AM 26.6 °F 17.5 °F 23.0 °F 86% 30.42 in 3.1 mi East 9.2 mph - N/A   Mist
9:30 AM 28.4 °F 21.2 °F 24.8 °F 86% 30.45 in 3.1 mi East 6.9 mph - N/A   Mist
10:00 AM 30.2 °F 21.3 °F 24.8 °F 80% 30.45 in 3.1 mi East 10.4 mph - N/A   Mist
10:30 AM 32.0 °F 23.0 °F 24.8 °F 75% 30.45 in 3.7 mi ESE 11.5 mph - N/A   Unknown
11:00 AM 35.6 °F 29.2 °F 24.8 °F 65% 30.45 in 4.3 mi SE 8.1 mph - N/A   Unknown
11:30 AM 35.6 °F 30.7 °F 24.8 °F 65% 30.48 in 5.0 mi ESE 5.8 mph - N/A   Unknown
12:00 PM 37.4 °F 32.8 °F 24.8 °F 60% 30.48 in 5.0 mi ESE 5.8 mph - N/A   Unknown
12:30 PM 39.2 °F 35.0 °F 24.8 °F 56% 30.48 in 5.0 mi Variable 5.8 mph - N/A   Unknown
1:00 PM 39 °F - 25 °F 44% 30.53 in 5 mi East 6.7 mph - -   Haze
1:00 PM 39.2 °F 34.2 °F 24.8 °F 56% 30.48 in 5.0 mi East 6.9 mph - N/A   Unknown
1:30 PM 39.2 °F 35.9 °F 24.8 °F 56% 30.45 in 5.0 mi NE 4.6 mph - N/A   Unknown
2:00 PM 39.2 °F 35.0 °F 24.8 °F 56% 30.45 in 5.0 mi NE 5.8 mph - N/A   Unknown
2:30 PM 41.0 °F 33.1 °F 23.0 °F 49% 30.45 in 5.6 mi ENE 15.0 mph - N/A   Unknown
3:00 PM 41.0 °F 36.4 °F 23.0 °F 49% 30.45 in - East 6.9 mph - N/A   Clear
3:30 PM 41.0 °F 34.7 °F 23.0 °F 49% 30.45 in - East 10.4 mph - N/A   Clear
4:00 PM 41.0 °F 34.3 °F 21.2 °F 45% 30.45 in - East 11.5 mph - N/A   Clear
4:30 PM 41.0 °F 34.3 °F 21.2 °F 45% 30.45 in - ENE 11.5 mph - N/A   Clear
5:00 PM 41.0 °F 35.2 °F 21.2 °F 45% 30.45 in - ENE 9.2 mph - N/A   Clear
5:30 PM 37.4 °F 32.8 °F 21.2 °F 52% 30.45 in - ENE 5.8 mph - N/A   Clear
6:00 PM 37.4 °F 33.8 °F 21.2 °F 52% 30.45 in - NNE 4.6 mph - N/A   Clear
6:30 PM 33.8 °F 30.8 °F 21.2 °F 60% 30.48 in - North 3.5 mph - N/A   Clear
7:00 PM 33.8 °F 29.6 °F 21.2 °F 60% 30.48 in - North 4.6 mph - N/A   Clear
7:30 PM 32.0 °F 27.5 °F 21.2 °F 64% 30.48 in - North 4.6 mph - N/A   Clear
8:00 PM 32.0 °F 27.5 °F 21.2 °F 64% 30.48 in - North 4.6 mph - N/A   Clear
8:30 PM 35.6 °F 30.7 °F 21.2 °F 56% 30.48 in - NE 5.8 mph - N/A   Clear
9:00 PM 32.0 °F 22.5 °F 15.8 °F 51% 30.51 in - ENE 12.7 mph - N/A   Clear
9:30 PM 32.0 °F 22.5 °F 17.6 °F 55% 30.51 in - East 12.7 mph - N/A   Clear
10:00 PM 26.6 °F 16.2 °F 17.6 °F 69% 30.51 in - East 11.5 mph - N/A   Clear
10:30 PM 24.8 °F 16.1 °F 17.6 °F 74% 30.51 in - East 8.1 mph - N/A   Clear
11:00 PM 26.6 °F 22.6 °F 17.6 °F 69% 30.54 in - ENE 3.5 mph - N/A   Clear
11:30 PM 26.6 °F 20.0 °F 17.6 °F 69% 30.54 in - East 5.8 mph - N/A   Clear